Regional Weather Roundup
Issued by NWS Columbia, SC

Home | Current Version | Previous Version | Text Only | Print | Product List | Glossary On
Versions: 1 2 3 4 5 6 7 8 9 10 11 12 13 14 15 16 17 18 19 20 21 22 23 24 25 26 27 28 29 30 31 32 33 34 35 36 37 38 39 40 41 42 43 44 45 46 47 48 49 50
000
ASUS42 KCAE 210610
RWRCAE
REGIONAL WEATHER ROUNDUP
NATIONAL WEATHER SERVICE COLUMBIA SC
200 AM EDT SUN SEP 21 2014

NOTE: "FAIR" INDICATES FEW OR NO CLOUDS BELOW 12,000 FEET WITH NO
SIGNIFICANT WEATHER AND/OR OBSTRUCTIONS TO VISIBILITY.

NOT ALL STATIONS ARE QUALITY CONTROLLED BY THE NATIONAL
WEATHER SERVICE. USE DATA WITH CAUTION...ESPECIALLY
DEWPOINT OBSERVATIONS.

SCZ001>056-GAZ040-063>065-077-210700-
...UPSTATE SOUTH CAROLINA...

CITY           SKY/WX    TMP DP  RH WIND       PRES   REMARKS
ANDERSON       CLEAR     63  60  90 CALM      30.02F
6HR MIN TEMP:  62; 6HR MAX TEMP:  72;

LIBERTY        FAIR      58  59 100 MISG      30.02F
6HR MIN TEMP:  58; 6HR MAX TEMP:  81;

SPARTANBURG    FAIR      64  63  94 N3        30.01F
CLEMSON        CLEAR     67  62  84 NW5       30.04F
6HR MIN TEMP:  67; 6HR MAX TEMP:  75;

GREENVILLE     CLEAR     63  59  87 CALM      30.03F
6HR MIN TEMP:  63; 6HR MAX TEMP:  73;

GREENWOOD      CLEAR     61  58  90 N3        30.03F
6HR MIN TEMP:  61; 6HR MAX TEMP:  71;

GREER          CLEAR     61  60  97 CALM      30.01F
6HR MIN TEMP:  61; 6HR MAX TEMP:  71;

ROCK HILL      PTCLDY    61  59  93 CALM      30.01F
6HR MIN TEMP:  61; 6HR MAX TEMP:  69;

CHESTER        FAIR      66  59  77 N5        30.05F
LAURENS        FAIR      61 N/A N/A N3        30.02F


...CENTRAL SOUTH CAROLINA...

CITY           SKY/WX    TMP DP  RH WIND       PRES   REMARKS
COLUMBIA APT   MOCLDY    69  59  70 NW5       29.97F
6HR MIN TEMP:  66; 6HR MAX TEMP:  76;

COLUMBIA OWENS MOCLDY    68  59  73 CALM      29.98F
6HR MIN TEMP:  67; 6HR MAX TEMP:  75;

DARLINGTON     CLOUDY    68  57  68 N8        29.95F
6HR MIN TEMP:  68; 6HR MAX TEMP:  72;

FLORENCE       MOCLDY    70  61  73 N9        29.92F
6HR MIN TEMP:  70; 6HR MAX TEMP:  74;

MCENTIRE ANGB  MOCLDY    64  58  82 NW6       29.97F HAZE
6HR MIN TEMP:  64; 6HR MAX TEMP:  72;

ORANGEBURG     MOCLDY    67  60  78 N6        29.95F
6HR MIN TEMP:  67; 6HR MAX TEMP:  73;

SUMTER SHAW    MOCLDY    68  60  75 N9        29.94F
6HR MIN TEMP:  68; 6HR MAX TEMP:  73;

NEWBERRY       FAIR      64  63  94 N3        30.02F
AIKEN          FAIR      63  63 100 CALM      30.02F
BARNWELL       FAIR      64  61  88 NW3       29.98F
MANNING        FAIR      70  64  83 N6        29.93F
CAMDEN         FAIR      64  59  82 CALM      29.97F
LANCASTER      FAIR      64  63  94 N6        29.99F
WINNSBORO      FAIR      63  61  94 N3        29.99F


...EASTERN AND COASTAL SOUTH CAROLINA...

CITY           SKY/WX    TMP DP  RH WIND       PRES   REMARKS
MYRTLE BEACH   CLOUDY    70  64  83 NW12      29.87F
6HR MIN TEMP:  70; 6HR MAX TEMP:  73; 6HR PCP:  0.12;

N MYRTLE BCH   LGT RAIN  70  67  90 NW7       29.86F
6HR MIN TEMP:  70; 6HR MAX TEMP:  74; 6HR PCP:  0.03;

CONWAY         LGT RAIN  70  64  83 N5        29.89F
HARTSVILLE     FAIR      70  46  43 N3        29.96F
FLORENCE       MOCLDY    70  61  73 N9        29.92F
6HR MIN TEMP:  70; 6HR MAX TEMP:  74;

DARLINGTON     CLOUDY    68  57  68 N8        29.95F
6HR MIN TEMP:  68; 6HR MAX TEMP:  72;

CHARLESTON APT CLOUDY    71  64  78 N8        29.90F
6HR MIN TEMP:  71; 6HR MAX TEMP:  75;

MOUNT PLEASANT FAIR      72  64  78 N6        29.89F
WALTERBORO     MOCLDY    68  68 100 NW5       29.93F
BEAUFORT       MOCLDY    70  63  78 S7        29.93S
6HR MIN TEMP:  70; 6HR MAX TEMP:  73;



...EASTERN GEORGIA...

CITY           SKY/WX    TMP DP  RH WIND       PRES   REMARKS
AUGUSTA BUSH F PTCLDY    61  60  97 CALM      29.98F
6HR MIN TEMP:  61; 6HR MAX TEMP:  71;

AUGUSTA DANIEL PTCLDY    69  61  75 NW7       30.00F
6HR MIN TEMP:  69; 6HR MAX TEMP:  78;

THOMSON        CLEAR     62  62 100 CALM      30.06S
6HR MIN TEMP:  62; 6HR MAX TEMP:  73;

WASHINGTON     FAIR      66  64  94 NW3       30.02F
CLAXTON        FAIR      64  64 100 CALM      29.96F
SYLVANIA       PTCLDY    68  66  94 CALM      29.97F
6HR MIN TEMP:  68; 6HR MAX TEMP:  77;

STATESBORO     PTCLDY    63  63 100 CALM      29.96F
6HR MIN TEMP:  63; 6HR MAX TEMP:  71;

SAVANNAH       PTCLDY    68  62  81 N5        29.94F
6HR MIN TEMP:  67; 6HR MAX TEMP:  73;



...SOUTHERN NORTH CAROLINA...

CITY           SKY/WX    TMP DP  RH WIND       PRES   REMARKS
CHARLOTTE      PTCLDY    62  59  90 NW6       30.00F
6HR MIN TEMP:  62; 6HR MAX TEMP:  72;

MONROE         MOCLDY    65  58  78 N5        29.99F
6HR MIN TEMP:  65; 6HR MAX TEMP:  73;

WADESBORO      CLOUDY    62  60  93 CALM      29.96F
6HR MIN TEMP:  61; 6HR MAX TEMP:  72;

ROCKINGHAM     CLOUDY    67  60  77 NW5       29.95F
6HR MIN TEMP:  67; 6HR MAX TEMP:  72;

RUTHERFORDTON  CLEAR     60  59  96 NW5       30.03F
6HR MIN TEMP:  60; 6HR MAX TEMP:  71;

ASHEVILLE      CLEAR     57  55  93 CALM      30.09F
6HR MIN TEMP:  57; 6HR MAX TEMP:  67; 6HR PCP: TRACE;


$$


USA.gov is the U.S. government's official web portal to all federal, state and local government web resources and services.